カタログに戻る

STARLINK-5871

運用中通信VLEO
NORAD 55919·PAYLOAD·🇺🇸 United States

打ち上げ Mar 17, 2023 から Vandenberg Space Force Base

Loading…

次のパス (今後24時間)

TLE

最新Source: CelesTrak SupGP

元期: Sep 15, 2026, 01:38 UTC

1 55919C 23037F   26258.06854167 -.00010603  00000+0 -88858-3 0  2583
2 55919  70.0018 187.0149 0003127 270.2524  67.7194 14.98334528    14

AllMySatでSTARLINK-5871をリアルタイム追跡

Download on the App Store